Observations for Trim Patrick St
| Time | AQI | Temp °C | Hum % | Pres Pa | CO μg/m³ | H₂S μg/m³ | NO μg/m³ | NO₂ μg/m³ | O₃ μg/m³ | SO₂ μg/m³ | PM1 μg/m³ | PM2.5 μg/m³ | PM10 μg/m³ |
|---|---|---|---|---|---|---|---|---|---|---|---|---|---|
| Saturday 8 August 2026 | |||||||||||||
| 22:29 | 3 | 20.6 | 62 | 75,477 | 0 | 13.79 | 1.24 | 40.6 | 47.33 | 5.18 | 8 | 14.48 | 15.93 |
| 22:28 | 3 | 20.6 | 61 | 75,485 | 0 | 9.94 | 1.24 | 25.02 | 37.88 | 4.86 | 8.86 | 14.62 | 16.08 |
| 22:27 | 3 | 20.6 | 61 | 75,517 | 0 | 11.86 | 1.26 | 35.13 | 31.25 | 4.71 | 7.14 | 12.36 | 13.59 |
| 22:26 | 3 | 20.7 | 63 | 75,534 | 0 | 12.15 | 1.22 | 24.77 | 39.94 | 5.89 | 8 | 12.98 | 14.28 |
| 22:25 | 3 | 20.6 | 62 | 75,542 | 0 | 12.52 | 1.24 | 40.63 | 31.62 | 5.26 | 8.86 | 14.5 | 15.94 |
| 22:24 | 3 | 20.7 | 61 | 75,550 | 0 | 10.54 | 1.26 | 25.65 | 35.34 | 5.37 | 6.29 | 12.39 | 13.63 |
| 22:23 | 3 | 20.7 | 62 | 75,568 | 0 | 13.76 | 1.28 | 40.47 | 32.11 | 5.37 | 7.14 | 11.56 | 12.72 |
| 22:22 | 3 | 20.7 | 60 | 75,560 | 0 | 14.13 | 1.27 | 40.66 | 28.79 | 5.21 | 5.43 | 10.99 | 12.08 |
| 22:21 | 3 | 20.7 | 63 | 75,550 | 0 | 15.79 | 1.22 | 30.37 | 36.92 | 5.97 | 5.43 | 11.5 | 12.66 |
| 22:20 | 3 | 20.7 | 61 | 75,538 | 0 | 16.16 | 1.24 | 54.85 | 42.36 | 5.85 | 6.29 | 12.36 | 13.6 |
| 22:19 | 3 | 20.8 | 60 | 75,509 | 0 | 13.23 | 1.23 | 28.44 | 33.18 | 5.52 | 7.14 | 11.73 | 12.9 |
| 22:18 | 3 | 20.8 | 60 | 75,511 | 0 | 15.52 | 1.23 | 48.86 | 33.95 | 5.59 | 5.43 | 10.24 | 11.27 |
| 22:17 | 3 | 20.8 | 60 | 75,489 | 0 | 14.39 | 1.23 | 35.36 | 32.43 | 5.75 | 3.71 | 8.04 | 8.85 |
| 22:16 | 3 | 20.8 | 62 | 75,479 | 0 | 15.58 | 1.23 | 41.52 | 33.11 | 6.39 | 3.71 | 7.88 | 8.67 |
| 22:15 | 3 | 20.8 | 62 | 75,463 | 0 | 14.26 | 1.23 | 39.52 | 32.66 | 6.06 | 3.71 | 8.61 | 9.47 |
| 22:14 | 3 | 20.9 | 61 | 75,446 | 0 | 14.89 | 1.24 | 40.26 | 32.19 | 6.12 | 2 | 6.47 | 7.12 |
| 22:13 | 3 | 20.9 | 63 | 75,436 | 0 | 16.13 | 1.2 | 42.07 | 33.59 | 6.74 | 3.71 | 7.09 | 7.79 |
| 22:12 | 3 | 20.9 | 62 | 75,408 | 0 | 14.49 | 1.21 | 33.71 | 35.9 | 6.93 | 3.71 | 8.58 | 9.44 |
| 22:11 | 3 | 20.9 | 61 | 75,393 | 0 | 18.53 | 1.26 | 52.87 | 29.38 | 6.77 | 2.86 | 7.19 | 7.9 |
| 22:10 | 3 | 20.9 | 61 | 75,355 | 0 | 16.39 | 1.31 | 43.43 | 31.13 | 6.66 | 2 | 6.45 | 7.09 |